Wind_Speed
7 7 6 6 6 6 7 7 8 8 9 8 8 8 9 10 11 12 13 13 13 14 14 15 15 16 16 16 16 15 16 16 16 16 16 16 16 16 16 16 16 17 17 17 17 18 18 18 18 19 19 19 19 20 20 20 20 20 21 21 21 21 22 22 22 22 22 22 22 23 23 23 23 23 23 23 23 23 24 24 24 24 24 24 24 25
6 6 6 6 7 7 7 7 7 7 8 8 8 9 9 10 12 12 13 13 13 14 14 14 15 15 16 16 16 15 15 15 16 16 16 16 16 16 16 16 17 17 17 17 18 18 18 18 18 18 18 18 19 19 19 20 20 20 20 20 21 21 21 21 21 22 22 22 22 23 23 23 23 23 24 24 24 24 24 24 24 25 25 25 25 25
5 5 5 6 6 6 6 6 7 7 7 8 9 10 11 12 12 12 12 12 13 13 13 14 14 15 15 16 15 15 15 15 15 15 15 16 16 16 16 17 17 17 17 17 17 17 17 17 17 17 17 18 18 19 19 19 20 20 20 20 21 21 21 21 21 22 22 22 23 23 23 23 24 24 24 24 24 25 25 25 25 25 25 25 25 25
4 4 4 5 5 6 6 6 6 7 7 8 9 10 11 12 12 12 12 12 12 13 13 13 14 14 15 15 15 15 15 15 15 15 16 16 16 17 17 17 17 17 17 17 17 17 17 17 17 17 17 18 18 19 19 20 20 20 21 21 21 21 22 22 22 22 22 23 23 23 24 24 24 24 24 25 25 25 25 25 25 25 25 25 26 26
3 3 4 4 5 6 6 6 6 7 7 8 9 10 10 11 11 12 12 12 12 13 13 13 13 14 14 15 15 15 15 15 15 16 16 16 17 17 17 17 17 17 17 17 17 17 17 17 17 17 18 18 19 19 20 20 21 21 21 21 21 22 22 22 22 22 22 23 23 24 24 24 24 24 24 24 25 25 25 25 25 25 25 26 26 26
3 4 4 5 5 6 6 6 6 7 8 9 10 10 10 11 11 11 11 12 12 12 13 13 13 14 14 15 15 15 15 15 15 16 16 16 16 16 16 16 16 16 16 16 17 17 17 17 18 18 19 19 20 20 20 21 21 21 21 21 22 22 22 22 22 22 23 23 23 23 23 23 24 24 24 24 24 24 25 25 25 25 26 26 26 26
3 4 5 5 5 6 6 7 8 8 9 9 9 9 9 10 10 11 11 11 12 12 13 13 13 13 14 14 14 14 14 14 14 14 14 15 15 15 15 15 15 15 16 16 17 17 18 18 19 19 19 20 20 20 21 21 21 21 21 22 22 22 22 22 22 22 22 23 23 23 23 23 23 23 24 24 24 24 25 25 25 25 25 26 26 26
4 5 5 4 4 5 7 8 8 8 8 8 8 8 9 9 10 10 11 12 12 12 12 12 13 13 12 13 13 13 13 13 13 14 14 14 14 14 14 14 15 15 16 17 17 18 18 19 19 20 20 21 21 21 21 21 21 21 21 21 21 21 21 21 21 21 22 22 22 22 22 22 23 23 23 23 24 24 24 25 25 25 25 25 26 26
5 5 5 5 5 6 7 8 8 7 7 7 7 8 9 9 10 10 11 11 11 11 11 11 11 12 12 12 13 13 13 13 14 14 14 14 14 15 15 15 16 16 17 17 18 18 19 19 20 20 21 21 21 21 21 21 21 21 21 21 21 21 21 21 21 21 21 21 21 21 21 21 22 22 22 23 23 24 24 24 25 25 25 25 25 26
5 5 5 6 7 8 8 8 7 6 6 6 7 8 9 10 10 10 10 10 10 9 9 10 11 12 13 13 13 13 14 14 14 14 14 14 15 15 16 16 16 17 17 17 18 18 19 19 20 20 20 21 21 21 21 21 20 20 20 20 20 20 20 20 20 20 20 20 20 20 20 21 21 22 22 22 23 23 24 24 24 25 25 25 26 26
5 5 6 7 7 7 7 7 6 6 6 7 8 9 10 9 9 9 10 10 9 9 9 10 11 12 13 14 14 14 14 14 14 14 14 14 14 14 15 15 15 16 16 17 17 18 19 19 19 20 20 20 20 20 20 20 20 20 20 19 19 19 19 19 19 19 19 19 19 20 20 21 21 22 22 23 23 23 24 24 25 25 25 26 26 26
5 5 6 6 6 6 6 6 6 6 7 7 8 8 8 8 7 8 9 10 10 10 11 11 11 12 13 14 14 15 14 14 14 14 14 13 13 13 13 13 14 14 15 16 17 18 18 18 18 19 19 19 19 19 19 19 19 19 19 18 18 18 18 18 18 18 19 19 20 20 21 21 22 22 23 23 23 24 24 25 25 25 25 26 27 27
5 5 5 6 6 6 6 6 6 6 7 7 7 7 7 7 7 8 9 10 11 11 11 12 12 13 13 14 14 14 14 14 14 14 13 13 13 13 13 14 14 15 16 17 18 18 18 18 18 19 19 19 19 19 19 18 18 18 18 17 17 17 18 18 18 19 20 20 21 21 22 22 23 23 23 24 24 24 25 25 25 26 26 26 27 27
5 5 5 5 6 6 6 6 6 6 6 6 6 6 7 8 9 9 10 10 10 10 11 12 13 14 14 14 14 14 14 14 14 13 13 13 13 13 14 15 16 17 18 18 19 19 18 19 19 19 19 19 19 18 18 17 17 17 17 17 18 18 19 19 20 20 21 21 22 22 23 23 23 23 24 24 24 25 25 25 26 26 26 27 27 27
5 5 5 5 6 6 6 6 6 6 6 6 6 7 8 9 9 9 9 10 10 10 11 12 14 14 14 13 13 12 12 13 13 13 13 13 13 14 15 16 17 18 19 19 19 19 19 19 19 19 19 19 18 18 17 17 18 18 18 18 19 19 20 21 21 22 22 22 23 23 23 24 24 24 24 25 25 25 25 26 26 26 27 27 27 27
4 4 5 6 6 7 6 6 6 6 6 7 7 8 9 9 8 8 8 9 10 11 11 12 13 13 13 12 11 11 11 11 12 13 14 15 15 15 16 17 18 19 19 20 20 20 19 19 19 19 19 19 19 18 18 18 19 19 20 20 21 21 22 22 22 23 23 23 23 24 24 24 24 25 25 25 25 26 26 26 27 27 27 27 27 27
4 5 6 6 7 7 7 6 6 6 7 8 8 8 8 8 7 7 8 9 10 11 11 11 11 10 10 12 11 10 10 10 11 13 15 16 17 17 17 18 19 19 20 20 20 19 19 19 19 19 19 19 19 19 19 20 21 21 22 22 22 22 23 23 23 23 23 24 24 24 24 25 25 25 25 26 26 26 27 27 27 28 28 28 28 28
5 6 6 7 7 7 7 6 7 7 7 8 7 7 7 7 7 8 9 10 11 11 11 11 10 9 9 10 11 11 10 11 13 14 16 18 19 19 19 18 18 19 20 20 19 19 19 19 19 20 20 20 20 21 21 22 22 22 23 23 23 23 23 23 24 24 24 24 25 25 25 25 25 25 26 26 26 27 27 28 28 28 28 28 28 28
6 6 6 6 7 7 7 7 7 7 7 7 6 7 7 8 9 10 11 11 11 12 12 12 12 12 12 12 13 13 12 13 14 15 17 19 20 20 19 18 18 18 19 19 19 19 19 19 20 21 21 21 21 22 22 22 22 23 23 23 23 24 24 24 25 25 25 25 25 25 25 25 25 26 26 26 26 26 27 27 27 28 28 28 29 29
6 7 7 7 7 7 8 7 7 6 6 6 7 7 8 9 10 11 11 12 12 12 12 12 13 13 14 14 15 14 14 14 15 16 18 20 21 20 18 17 17 18 19 19 19 19 19 20 20 21 21 21 21 21 22 22 23 23 24 24 25 25 25 25 25 25 26 26 26 26 26 26 25 25 26 26 26 26 26 26 27 27 28 28 28 29
8 8 8 7 7 7 7 7 6 6 7 7 8 8 8 10 11 11 12 12 12 12 12 12 13 14 14 15 15 15 15 15 15 16 18 19 20 20 18 16 16 17 19 19 19 19 18 19 20 20 21 21 21 22 22 23 24 25 25 25 26 26 26 26 26 26 26 26 26 26 26 26 26 25 26 26 26 26 26 26 27 27 27 28 28 29
10 10 9 8 8 8 8 8 8 8 8 9 9 10 10 10 11 12 12 12 12 12 12 12 13 14 15 16 17 18 18 17 16 16 17 17 19 19 17 15 15 17 18 19 19 18 19 19 20 20 21 21 22 23 24 24 25 26 26 26 26 26 26 26 26 26 26 26 26 26 26 26 26 26 26 26 26 26 26 27 27 27 27 28 28 28
10 10 9 9 9 9 9 9 9 9 9 10 10 10 10 11 12 13 13 12 11 11 12 12 14 16 17 18 19 19 18 17 16 16 15 15 17 18 17 15 15 16 18 18 19 19 19 19 20 21 21 22 23 23 24 25 25 26 26 27 27 27 27 27 27 26 26 26 26 26 26 26 26 26 26 26 27 27 27 27 27 27 27 27 28 28
8 9 9 9 9 9 9 10 10 10 10 11 11 11 12 13 15 15 14 12 12 12 14 15 17 18 18 18 18 18 17 15 14 14 14 15 16 17 16 15 15 16 18 18 18 18 19 20 21 21 22 22 23 23 24 25 26 26 27 27 27 27 27 27 26 26 26 26 26 26 26 26 27 27 27 27 27 27 27 27 27 27 27 27 27 28
8 9 9 9 10 10 11 11 11 11 11 12 12 13 13 14 15 15 14 13 13 14 15 15 16 16 16 16 16 15 15 13 13 13 14 14 16 17 16 15 15 16 18 18 18 18 19 20 21 21 22 23 24 24 25 26 26 26 26 26 26 26 26 26 26 26 26 26 26 27 27 27 27 27 27 27 27 27 27 27 27 27 27 27 27 27
10 11 11 12 12 13 13 13 14 14 13 13 14 14 14 14 14 14 14 14 13 13 14 14 14 15 15 15 14 14 13 12 12 12 13 13 15 17 17 15 15 16 18 18 18 18 19 20 21 22 23 24 25 25 25 25 25 25 25 25 25 25 25 25 25 26 26 27 27 27 27 27 27 27 27 27 27 27 27 27 27 27 27 27 27 28
12 13 13 13 14 14 15 15 15 15 15 15 15 15 15 15 14 14 14 13 13 12 12 12 13 13 14 14 13 13 13 12 11 11 13 14 15 16 17 15 15 15 17 18 18 18 19 21 22 23 23 24 24 24 24 23 23 23 24 24 24 25 25 26 26 26 27 27 27 27 27 27 27 27 27 27 27 27 27 27 27 27 27 27 27 27
11 12 12 13 13 14 14 15 15 15 16 16 15 15 15 14 14 14 14 14 13 12 13 12 12 12 12 12 13 14 13 12 12 13 13 14 14 15 16 15 14 15 16 18 19 20 20 21 22 23 23 23 22 22 22 22 22 23 24 24 25 25 26 26 26 26 26 26 26 26 26 26 27 27 27 27 27 27 27 27 27 27 27 26 25 25
9 10 10 11 12 12 13 14 14 14 15 15 15 14 14 14 15 15 15 14 13 13 13 13 13 12 12 13 14 14 14 14 14 14 13 13 14 14 15 14 14 14 15 17 19 20 20 20 20 20 20 20 20 20 21 21 22 23 24 25 25 25 25 25 25 25 25 25 25 26 26 26 27 27 27 27 27 27 27 26 26 26 25 24 24 23
9 9 10 10 11 11 12 13 13 13 13 13 13 14 14 14 15 15 15 14 13 13 13 13 13 13 13 12 12 12 12 12 11 10 9 10 11 13 13 13 14 14 14 14 14 15 17 19 18 17 17 18 19 20 21 22 23 24 24 25 25 24 24 24 23 24 24 25 25 26 26 26 26 26 26 26 26 26 26 26 25 25 24 24 23 23
10 10 10 10 11 11 11 11 12 12 12 12 12 13 13 14 14 14 14 13 13 13 13 13 13 13 12 10 7 5 6 9 8 6 6 8 10 12 13 14 15 15 14 12 8 6 10 15 18 17 17 19 20 22 23 23 23 23 24 24 24 24 24 23 23 24 24 24 25 25 25 25 25 26 26 26 26 26 26 25 25 24 24 23 23 23
10 10 10 10 10 10 10 10 11 11 11 11 11 11 12 12 13 12 12 12 12 12 12 13 13 13 12 11 9 8 9 11 10 8 8 10 12 14 14 14 15 15 14 13 11 8 6 10 17 21 21 21 22 23 23 23 22 23 23 23 24 24 24 23 23 23 23 23 24 24 24 24 25 25 25 25 25 25 25 24 24 23 23 22 22 22
10 10 10 10 10 10 10 10 10 10 10 10 10 10 10 10 10 11 11 11 11 12 12 12 13 13 13 14 14 15 15 15 14 12 11 12 13 14 14 14 15 15 15 15 15 15 12 14 19 23 24 24 23 23 23 22 22 22 22 23 24 24 24 23 22 22 23 23 23 24 24 24 24 24 24 24 24 24 24 23 23 22 22 22 22 22
10 10 10 10 10 10 10 10 10 10 10 9 9 9 9 9 9 10 10 11 11 12 12 13 13 13 13 14 14 16 17 16 14 12 11 12 12 13 14 14 15 15 15 16 16 16 17 19 20 21 22 24 24 23 22 22 22 22 22 22 23 23 23 23 23 23 23 24 24 24 24 23 23 23 23 23 23 22 22 22 22 22 22 22 22 23
10 10 10 10 10 10 10 10 9 9 9 9 8 8 8 9 9 9 10 10 11 12 13 13 13 14 14 14 14 15 16 16 14 12 11 12 12 13 14 15 15 15 15 15 15 15 16 19 20 20 20 22 24 24 23 22 21 21 22 22 22 23 23 23 23 24 24 24 24 24 24 23 23 23 22 22 22 22 22 22 23 23 23 24 24 24
10 10 10 10 9 9 9 8 8 8 8 7 7 8 8 8 9 9 10 10 11 12 13 14 15 15 16 16 16 17 18 17 15 13 12 13 13 14 15 16 16 15 15 15 16 15 16 18 20 21 20 20 21 23 23 22 21 21 22 22 23 23 24 24 24 24 24 24 24 24 24 24 23 23 23 22 22 23 23 24 24 24 24 25 25 25
10 10 10 9 9 8 8 7 7 7 7 7 7 7 8 8 9 9 10 11 12 12 13 14 15 16 17 18 19 20 21 20 19 17 16 16 16 16 16 17 18 17 16 16 16 17 17 17 19 20 20 19 19 20 22 23 23 23 23 23 23 24 24 24 24 24 24 24 24 24 24 24 24 24 24 24 23 24 24 24 24 24 24 24 24 24
9 9 9 8 7 7 7 7 7 7 7 7 7 8 8 9 9 10 11 12 13 14 15 15 16 17 18 19 20 22 23 23 22 22 21 21 20 20 19 20 20 19 18 17 18 18 18 17 16 15 17 19 20 22 23 23 24 24 25 25 25 25 25 24 24 23 23 23 24 24 24 24 24 25 25 24 24 24 24 24 23 23 23 23 23 24
9 9 8 7 7 7 7 7 7 7 7 7 8 8 9 10 10 11 12 12 13 14 15 15 16 17 18 19 21 22 23 24 24 25 25 25 24 23 22 22 21 21 20 20 20 19 19 18 17 16 16 18 21 23 24 23 23 24 25 26 26 25 24 23 23 22 23 24 24 25 25 25 25 25 25 24 24 24 24 24 23 23 22 23 23 23
8 8 7 7 7 7 7 7 7 8 8 8 9 9 10 10 11 11 12 12 12 13 14 15 15 16 17 18 19 20 21 22 23 24 25 25 25 25 24 23 23 22 22 21 21 21 20 20 20 21 20 20 21 23 24 24 24 24 24 24 24 25 25 24 24 24 24 25 25 25 25 25 25 24 24 23 23 23 23 24 24 23 23 23 23 23
7 7 7 7 7 7 7 8 8 8 9 9 9 10 10 10 10 11 11 11 12 12 13 13 14 16 17 18 18 18 19 21 22 23 24 24 25 25 25 25 24 23 22 22 21 21 21 21 22 22 22 22 22 24 25 25 25 25 24 23 24 26 27 27 26 25 25 24 24 24 24 24 24 24 24 24 24 24 24 24 24 24 24 24 24 24
7 7 7 7 7 7 8 8 8 9 9 10 10 10 10 10 10 10 10 11 12 12 12 13 14 15 16 17 18 18 18 19 20 21 22 23 24 25 26 26 25 24 23 22 22 22 22 22 22 22 23 22 22 23 24 26 26 25 24 24 25 27 27 27 26 24 23 23 23 24 24 24 25 25 25 26 26 26 25 25 25 25 25 25 24 24
7 8 8 8 8 8 9 9 9 9 10 9 10 10 10 10 10 10 11 12 12 13 13 13 14 15 16 17 17 18 18 18 19 20 21 22 22 23 25 25 26 25 24 23 23 22 23 23 22 22 23 22 22 22 24 26 26 26 25 24 24 23 22 24 25 24 23 24 25 25 25 26 26 27 27 27 26 26 25 25 26 26 25 25 25 25
8 8 8 8 8 9 9 9 9 9 9 9 10 10 10 10 10 11 11 12 13 13 13 13 14 15 16 17 17 18 17 17 17 17 18 19 20 21 23 24 25 25 25 24 23 22 22 23 23 22 22 22 22 23 24 25 25 26 26 25 24 23 23 24 26 27 26 26 26 26 26 26 27 27 27 27 26 26 25 25 25 25 25 25 25 25
8 8 8 8 9 9 9 9 9 9 9 10 10 11 11 11 11 11 12 12 13 13 13 13 13 14 15 16 16 16 17 16 16 16 16 17 17 18 20 21 22 23 24 24 24 24 23 22 23 23 23 22 22 23 24 25 25 26 26 26 25 24 25 27 27 26 26 27 27 27 27 27 27 27 27 26 26 26 25 25 25 25 25 25 25 25
8 8 8 9 9 9 9 10 10 10 10 11 11 11 11 11 11 11 12 12 13 14 14 14 13 14 15 16 16 16 16 17 17 16 16 16 16 16 17 18 20 21 22 23 24 25 24 24 24 24 23 22 23 24 25 25 25 25 26 26 25 25 25 26 26 26 26 26 27 27 28 27 26 26 25 26 26 26 25 25 24 24 25 25 25 25
8 8 9 9 9 10 10 10 10 10 11 11 11 11 11 11 11 12 12 13 13 13 14 14 14 14 15 16 16 16 16 17 17 17 16 16 16 16 16 17 18 19 21 22 23 24 25 26 26 25 23 23 23 24 26 25 25 24 25 25 25 24 24 25 26 26 26 26 26 27 28 26 26 25 25 25 25 25 25 24 24 24 24 24 25 25
8 8 9 9 10 10 10 10 10 11 11 12 12 12 11 11 11 12 13 13 13 13 14 14 14 15 15 16 16 16 17 17 18 18 18 17 17 16 16 17 17 18 19 21 22 24 25 27 28 27 26 25 24 24 26 26 25 25 25 25 24 24 24 26 26 26 25 25 26 27 27 25 24 23 23 24 25 25 26 26 25 24 24 24 25 25
8 9 9 9 10 10 10 11 11 11 11 12 12 12 12 12 12 12 13 13 13 13 14 14 14 15 15 16 16 17 17 17 18 18 18 17 17 17 17 17 17 18 19 20 21 22 24 25 26 27 27 26 26 26 27 26 26 25 25 24 24 24 24 25 26 25 24 24 25 26 25 24 23 22 22 22 24 26 28 27 26 25 24 24 24 25
8 9 9 9 10 10 11 11 11 11 11 12 12 13 13 13 13 13 13 14 14 14 14 14 15 15 16 16 17 17 17 17 18 18 18 17 17 17 17 17 18 18 18 19 20 20 21 22 23 23 24 25 26 26 27 27 26 26 25 24 24 24 24 25 25 24 23 23 24 24 24 24 23 23 22 22 24 26 27 27 27 25 24 23 23 24
9 9 9 10 10 11 11 11 11 12 12 13 13 13 14 14 14 14 14 14 14 14 14 15 15 15 16 17 17 17 18 18 18 18 18 18 17 17 17 17 17 17 17 17 18 18 17 17 17 19 21 21 21 23 25 26 25 25 24 24 24 23 23 24 24 24 24 24 24 25 25 25 24 23 22 22 23 24 25 26 26 26 24 23 22 23
Wind_Direction
203 205 209 214 220 228 238 243 250 257 263 266 269 273 277 279 281 284 287 289 290 291 291 290 289 289 288 286 285 284 283 282 282 282 282 282 282 283 284 283 283 282 282 282 281 281 282 282 283 284 284 284 284 283 282 282 281 281 280 280 279 279 280 280 280 279 277 276 276 277 277 277 277 277 277 278 278 279 278 279 280 281 280 279 279 279
210 211 212 215 220 228 239 245 250 257 264 269 272 275 279 283 286 288 289 289 289 289 289 289 289 288 287 286 285 284 283 283 283 283 283 282 282 283 283 283 283 283 284 284 284 284 284 284 284 284 284 284 283 282 282 281 281 280 280 279 279 279 279 279 279 279 278 277 276 276 276 276 277 277 277 278 278 278 278 279 279 279 279 279 279 280
187 196 204 213 219 227 237 246 252 258 264 269 272 276 280 284 287 288 289 289 289 288 287 288 288 288 287 287 286 285 284 284 284 284 283 283 283 283 283 284 285 285 286 287 287 287 287 286 286 285 284 283 283 282 282 281 281 280 280 279 279 279 279 279 279 279 278 277 276 276 276 276 276 277 277 277 277 277 278 279 279 278 279 279 279 279
183 193 205 216 225 232 238 248 256 262 265 270 274 278 281 284 285 286 286 287 288 288 287 287 287 287 287 287 286 286 285 285 285 285 284 284 284 284 285 286 287 288 288 289 289 289 288 288 287 285 284 283 283 282 282 281 281 280 280 279 279 279 279 279 279 279 279 277 276 276 275 275 276 276 277 277 277 278 278 279 279 279 279 279 279 279
199 210 221 228 234 239 245 252 260 267 273 276 279 281 283 283 283 284 285 286 287 287 287 287 287 286 286 286 287 287 287 286 286 286 285 285 285 285 286 287 288 289 289 290 290 290 289 288 287 286 285 284 283 283 282 282 281 280 280 279 279 279 279 279 279 279 279 278 278 277 277 277 277 277 277 278 278 278 278 279 279 279 279 279 279 278
220 229 236 237 239 243 250 257 266 274 280 282 282 282 281 281 281 282 283 285 286 286 286 286 286 286 286 286 287 288 289 288 288 288 287 287 287 287 287 288 288 289 289 289 289 289 288 287 286 286 285 284 283 283 282 282 281 281 280 280 280 279 279 279 279 279 279 279 279 279 279 279 279 279 278 278 278 278 278 278 278 278 278 278 278 278
239 243 243 242 243 248 258 267 273 278 281 282 283 282 281 281 281 281 281 282 284 285 285 285 285 286 287 288 290 291 292 292 292 291 291 291 290 290 290 290 290 290 290 289 289 288 288 287 286 286 285 284 283 283 283 282 282 282 281 281 280 280 280 279 279 279 279 279 279 279 279 279 278 278 278 277 277 277 276 277 277 277 277 277 277 277
247 248 244 242 249 261 270 274 276 275 274 275 278 282 284 285 284 283 283 282 282 283 284 285 286 288 289 292 294 295 296 296 296 295 295 294 293 292 292 291 291 291 290 290 289 289 288 287 286 285 285 284 283 283 283 282 282 282 282 281 281 281 281 280 280 280 280 279 279 279 278 278 277 277 276 276 276 276 276 276 276 276 276 276 276 276
243 249 250 251 262 273 278 278 275 270 264 264 270 279 286 288 288 287 286 283 282 281 283 286 290 292 294 296 297 298 297 297 297 296 295 294 293 292 292 292 291 291 291 290 290 289 288 287 286 285 285 284 283 283 283 282 282 282 282 282 281 281 281 281 281 281 280 280 280 279 279 278 277 277 276 276 276 275 275 275 275 275 275 276 276 276
238 246 256 263 267 270 272 275 274 267 259 259 266 272 278 282 284 286 286 285 285 285 286 290 294 297 298 299 299 299 298 297 296 296 295 293 293 292 292 292 292 292 292 291 291 290 289 289 288 287 286 285 284 284 283 283 282 282 282 282 282 281 281 281 281 281 281 280 280 280 279 279 278 278 277 277 276 276 275 275 275 275 275 275 275 275
239 247 258 267 269 268 265 268 270 268 263 265 268 270 270 270 274 281 286 289 292 293 294 294 296 298 300 301 300 300 300 299 299 298 297 296 295 294 293 293 293 294 294 293 293 292 292 291 290 289 288 286 285 285 284 283 283 283 282 282 281 281 281 281 281 281 281 281 281 281 281 280 280 279 278 278 277 276 276 275 275 274 274 274 274 274
247 256 263 267 270 270 268 268 269 268 265 265 267 268 268 268 274 282 288 292 295 297 298 297 296 296 298 299 300 300 300 300 301 301 301 300 300 299 298 297 297 297 297 296 295 294 293 292 291 290 289 287 286 285 284 284 284 283 283 282 282 282 282 282 282 282 283 283 283 282 282 282 281 281 280 279 278 277 276 276 275 275 274 274 273 273
248 257 261 264 265 267 269 269 268 265 261 260 264 272 280 285 288 289 289 288 291 294 298 299 299 298 298 298 298 299 300 300 301 302 302 302 302 302 301 301 300 300 299 298 297 295 294 293 292 291 289 288 287 286 285 285 284 284 284 283 283 283 283 283 283 284 284 284 284 284 283 283 282 282 281 280 279 278 277 277 276 275 275 274 274 273
249 253 256 259 261 263 264 264 264 264 263 266 273 282 288 291 292 290 287 286 289 294 300 302 302 302 301 299 298 298 299 300 301 302 301 301 301 302 302 301 300 299 298 297 295 294 294 293 292 291 289 288 287 287 286 285 285 285 285 285 285 285 285 285 285 285 285 285 285 284 284 284 283 282 282 280 280 279 278 277 277 276 275 275 274 273
250 253 256 259 262 264 264 263 265 267 273 279 286 289 290 288 287 286 287 289 295 302 306 306 304 303 302 301 300 300 299 300 301 301 301 300 300 300 301 300 299 298 296 295 293 293 292 292 291 290 289 288 287 287 286 286 285 286 286 286 286 286 286 287 286 286 286 286 285 285 284 284 283 283 282 281 280 279 279 278 277 276 276 275 274 274
254 261 264 266 266 266 266 268 272 278 283 286 287 286 285 284 285 289 294 300 305 308 310 308 307 306 304 303 302 301 300 300 301 301 301 299 298 298 299 299 298 296 294 293 292 292 292 291 290 289 288 287 287 287 286 286 286 287 287 287 287 287 287 287 287 287 286 286 286 285 285 284 284 283 282 282 281 280 279 279 278 277 276 275 275 274
258 262 264 266 267 268 270 274 278 281 283 283 281 278 278 283 291 300 304 306 307 307 305 304 304 304 304 304 303 302 303 303 303 302 301 299 297 296 296 297 296 294 293 291 290 290 291 290 289 288 287 287 287 287 287 287 287 288 288 288 288 288 288 288 287 287 287 287 286 286 285 285 284 284 283 282 282 281 280 280 279 278 277 276 275 274
249 251 255 260 265 270 275 279 280 279 278 277 277 279 283 291 299 304 304 302 300 298 296 293 291 291 294 297 298 300 304 306 306 304 301 297 295 295 295 295 293 291 290 289 289 289 289 288 287 287 287 287 288 288 288 288 288 288 289 289 289 288 288 288 288 288 287 287 287 286 286 285 285 284 283 283 283 282 281 281 280 279 278 277 276 275
249 250 254 261 267 271 272 272 272 272 274 275 282 289 293 295 297 296 293 290 287 284 281 280 280 281 284 287 290 294 300 304 306 304 300 296 294 294 296 295 293 290 288 288 288 289 289 288 289 289 289 289 289 289 289 289 289 290 290 290 290 289 289 289 289 288 288 288 287 287 286 286 285 285 284 284 283 283 282 281 281 280 279 278 277 276
263 263 263 265 268 269 268 266 265 268 273 280 286 291 292 292 291 289 285 281 276 272 268 270 273 277 281 284 287 292 297 302 303 301 297 293 292 293 295 294 292 289 288 287 288 289 290 290 290 291 291 290 290 290 290 291 291 291 291 291 291 290 290 290 289 289 288 288 288 287 287 286 286 285 285 284 284 283 282 282 281 280 280 279 278 277
272 271 268 268 269 269 268 269 271 274 278 283 286 287 286 285 284 282 280 277 273 269 266 268 272 277 282 285 288 290 294 298 298 295 293 291 290 291 293 292 290 288 287 287 289 290 290 290 290 291 291 291 292 292 292 292 292 292 292 292 291 291 291 290 290 289 289 288 288 288 287 287 286 286 285 285 284 284 283 282 281 281 280 280 279 278
269 270 270 270 269 268 268 271 275 277 277 278 278 277 276 277 279 279 278 276 274 272 272 274 278 282 284 286 287 288 289 289 287 287 289 288 287 288 291 291 289 287 286 287 290 291 291 291 290 291 291 292 292 292 293 293 293 293 293 293 292 292 292 291 291 290 289 289 288 288 288 287 287 287 286 286 285 285 284 283 283 282 281 280 280 279
263 266 268 269 268 266 266 269 271 273 272 271 269 269 270 274 278 280 279 279 279 282 284 286 287 286 285 284 284 284 284 282 280 279 281 281 283 286 290 291 289 286 285 287 290 293 293 292 291 291 292 293 293 294 294 294 294 294 294 293 293 293 292 291 291 290 289 289 289 288 288 288 288 288 287 287 286 286 285 284 284 283 282 281 280 279
262 263 265 266 265 264 264 266 268 268 267 266 265 265 268 271 275 279 283 287 290 292 292 290 288 285 283 282 282 282 282 280 276 274 274 275 279 283 288 289 289 287 286 288 291 293 293 292 292 293 293 294 294 294 294 294 294 294 294 293 293 293 292 291 291 290 290 289 289 289 289 289 289 289 288 288 287 287 286 285 284 284 283 282 281 280
264 265 265 265 265 265 264 265 265 265 264 264 265 266 268 271 274 278 284 289 290 288 287 286 284 282 281 283 283 283 282 280 275 271 269 273 277 281 285 287 287 287 287 289 291 293 293 293 293 294 294 294 294 294 294 294 294 294 294 294 293 293 293 292 292 291 291 290 290 289 289 289 289 289 288 288 288 287 287 286 285 284 284 283 282 281
266 266 266 267 267 266 265 264 264 264 263 264 265 267 270 273 276 279 281 281 281 281 281 280 279 279 281 283 283 283 284 283 277 270 268 273 278 282 284 286 286 286 287 289 292 293 293 293 294 294 295 294 294 295 295 295 295 295 295 295 295 294 294 293 293 292 291 291 290 290 289 289 289 289 288 288 288 287 287 286 286 285 285 284 283 282
271 269 268 268 267 266 265 264 264 264 263 263 264 266 268 271 274 275 274 273 274 275 275 276 277 279 282 282 282 282 284 284 280 274 272 275 278 281 283 285 286 286 288 289 291 293 293 293 294 294 294 293 294 295 295 296 297 297 297 296 296 295 294 293 293 292 292 291 290 290 290 289 289 289 288 288 287 287 287 286 286 286 286 285 284 283
275 273 269 267 265 265 264 264 264 264 263 263 262 262 262 264 265 266 266 268 270 271 271 271 273 278 281 281 282 283 284 283 279 276 274 274 274 275 279 283 285 287 289 292 294 294 293 291 291 291 291 292 293 295 296 297 298 298 297 297 296 295 294 294 293 292 292 291 291 290 290 290 289 289 288 288 287 287 287 287 287 287 286 285 284 282
274 272 269 266 265 265 266 267 266 265 264 262 260 258 256 255 256 258 261 265 267 268 267 268 269 272 277 280 283 284 283 280 276 274 272 269 268 271 277 282 286 290 295 298 299 298 294 291 289 289 290 292 294 296 298 298 299 298 298 297 296 295 294 294 293 293 292 291 291 290 290 289 289 289 288 288 288 287 287 287 287 287 287 285 284 282
276 274 271 269 268 268 269 270 269 267 264 262 259 256 253 252 251 254 258 261 263 263 264 266 267 270 274 281 285 285 282 278 276 275 271 269 270 275 282 286 289 293 299 303 303 300 296 294 291 290 291 294 296 298 299 299 299 299 298 298 297 296 295 295 294 293 293 292 291 290 290 290 289 289 288 288 288 287 287 287 287 287 286 285 283 281
280 278 275 274 272 271 270 269 268 266 263 261 258 255 252 251 250 251 254 256 256 257 260 263 265 268 270 275 279 281 278 277 279 284 284 282 280 282 287 290 291 292 294 296 298 300 299 298 297 296 296 298 298 298 298 298 298 298 298 297 296 295 295 296 295 295 294 292 292 291 290 290 289 289 288 288 287 287 287 287 287 286 285 283 281 280
279 278 277 276 276 274 271 268 266 264 262 260 257 254 251 249 248 249 249 251 252 254 257 261 264 265 265 264 263 264 269 273 278 285 291 290 286 284 286 287 288 289 289 286 283 283 292 296 298 299 299 299 298 298 297 297 296 296 296 295 294 294 295 296 296 296 295 294 293 292 291 290 290 289 288 288 287 286 286 286 285 284 283 281 279 278
279 279 278 278 277 274 271 268 265 262 260 258 256 253 250 248 247 247 248 249 250 251 254 258 262 264 264 263 262 263 266 270 274 280 285 285 283 283 283 284 285 287 288 285 281 278 278 283 291 296 298 298 297 297 297 296 296 295 294 293 293 293 295 296 297 296 295 295 294 293 292 291 290 289 288 288 287 286 286 285 284 283 282 280 279 278
281 280 279 278 277 274 270 266 263 260 258 255 254 253 251 250 249 249 249 249 249 250 251 254 257 261 264 265 266 266 268 269 273 277 280 280 280 281 283 284 285 287 289 288 285 282 280 281 287 293 296 297 297 296 296 295 295 294 293 293 292 293 295 296 296 296 295 295 294 293 292 291 290 289 288 288 287 286 285 285 284 283 282 280 279 279
283 281 280 278 276 272 269 265 262 259 257 256 256 255 254 253 253 253 253 253 252 251 251 252 253 256 260 264 267 269 270 271 273 276 279 281 282 284 284 283 283 285 287 286 286 285 284 285 287 290 294 296 297 296 295 295 295 295 294 293 292 292 293 294 295 295 295 294 293 292 292 291 290 289 288 287 286 286 286 285 285 284 283 281 280 279
282 280 278 276 273 270 268 265 263 261 260 260 259 260 259 259 259 259 259 258 257 256 255 255 256 256 257 260 263 266 269 272 274 276 277 278 280 282 282 280 280 282 283 283 283 283 284 286 288 289 290 292 295 296 297 297 297 297 295 294 294 293 293 293 293 293 293 293 292 291 291 291 290 289 289 288 287 287 287 287 286 285 284 282 280 278
278 277 275 273 271 269 268 268 268 268 268 268 267 267 267 267 266 266 265 264 263 262 261 261 260 259 258 258 260 263 266 270 273 274 273 272 273 274 276 276 277 277 277 278 280 282 283 285 287 288 288 288 289 293 297 299 300 298 296 296 295 295 294 293 293 292 291 291 290 290 291 291 290 290 289 289 289 288 287 286 285 284 283 281 280 278
274 273 271 271 271 271 273 274 274 274 274 274 274 274 274 273 272 271 271 269 268 267 266 266 265 264 264 263 263 265 267 270 272 272 272 271 269 269 270 272 273 273 271 271 273 276 279 281 284 287 287 286 287 289 293 296 298 298 297 297 296 295 294 293 293 292 291 291 290 290 291 290 290 290 290 290 289 289 288 286 285 284 283 281 280 279
269 269 271 273 275 277 277 277 278 278 278 278 278 278 278 278 277 276 274 273 271 269 268 267 267 268 268 269 270 270 271 272 274 275 275 273 271 269 267 268 269 270 270 268 268 269 271 272 275 278 282 286 288 289 291 292 293 294 296 298 297 296 294 294 294 293 292 291 291 291 290 290 290 290 289 289 288 287 286 286 285 285 284 283 281 280
269 272 275 278 279 278 278 278 279 280 281 281 281 281 282 281 281 279 278 275 274 273 272 270 270 270 270 271 271 271 271 273 274 276 276 275 273 270 267 265 266 268 269 268 266 265 265 266 269 272 275 279 283 287 289 289 290 292 295 297 297 296 296 296 295 294 292 291 290 289 289 290 290 289 288 287 286 285 285 285 285 285 284 283 282 281
273 275 278 280 281 280 279 280 282 283 284 285 285 284 283 283 283 283 282 280 279 278 277 276 275 275 275 274 272 271 271 272 273 275 275 276 275 273 270 266 265 266 267 267 265 263 263 264 267 269 272 275 278 282 284 285 287 289 291 291 291 292 294 295 294 293 292 290 289 288 289 290 290 289 288 287 286 284 283 282 282 283 283 282 280 278
274 276 277 279 282 283 283 285 286 287 287 286 285 282 280 282 283 284 284 284 283 282 281 281 281 280 280 278 276 274 272 272 273 275 276 277 277 275 272 268 265 264 264 264 263 263 263 263 264 267 270 273 276 279 281 283 285 286 286 286 288 291 294 294 293 292 291 291 290 290 290 289 289 288 287 286 285 283 282 281 280 280 279 278 277 274
273 275 277 280 282 285 287 288 288 287 286 284 281 279 279 280 282 283 284 284 284 283 283 282 282 283 283 282 281 280 278 276 276 276 277 277 276 274 272 269 266 264 262 261 262 263 264 264 264 265 267 270 271 274 278 282 284 284 284 284 286 289 291 292 293 293 292 291 290 290 288 287 286 286 285 284 283 282 281 280 280 279 276 274 273 272
275 278 281 283 286 288 289 289 287 286 285 284 283 282 282 281 282 282 282 283 283 283 284 284 285 284 283 282 284 285 284 283 281 279 277 275 274 273 272 269 267 264 260 258 258 262 266 268 267 267 268 268 269 271 275 278 281 282 283 283 283 282 282 285 289 291 291 290 289 287 286 285 285 284 284 283 281 280 280 279 278 276 274 273 271 270
277 281 284 287 288 289 289 288 288 287 287 285 285 285 284 283 283 283 281 282 284 284 284 286 287 286 284 283 285 287 289 289 287 284 281 279 277 274 272 269 266 263 260 258 257 259 263 267 269 271 272 271 269 269 272 275 278 280 282 282 281 279 278 281 283 285 286 286 286 285 285 284 285 285 284 282 281 280 279 277 277 276 275 273 272 270
278 283 286 288 289 289 288 289 289 290 289 287 286 286 286 285 284 283 281 281 283 284 285 285 284 283 283 285 288 290 291 291 290 289 286 283 280 277 273 270 267 264 262 261 260 260 261 263 267 271 274 273 272 271 271 272 275 278 280 281 281 281 281 281 281 281 281 282 283 284 285 284 283 282 281 281 281 280 278 276 275 274 274 274 272 271
280 284 287 289 290 290 290 291 291 291 290 289 288 288 287 286 286 285 284 282 282 283 285 285 282 279 280 284 286 288 289 290 290 290 289 287 284 281 278 274 271 268 266 265 265 264 264 264 265 267 269 271 273 274 273 273 273 275 277 279 281 280 280 280 280 280 280 279 280 282 283 283 283 281 280 280 281 281 280 279 277 275 275 274 273 272
283 285 288 289 290 290 290 291 291 291 290 290 290 290 289 287 287 286 285 284 283 283 284 284 282 280 280 281 283 284 285 286 288 289 289 289 287 285 283 280 278 275 272 271 269 268 267 266 266 265 264 265 268 272 274 274 273 273 274 277 278 278 278 279 280 281 280 279 280 281 282 282 281 281 282 283 284 285 285 284 282 280 278 276 275 273
283 285 286 287 288 288 289 290 291 291 290 290 292 292 290 290 288 286 284 284 283 281 280 280 280 280 281 281 282 283 284 285 286 287 287 288 288 288 286 285 283 281 280 277 275 273 272 270 268 264 261 259 261 265 269 271 272 272 273 274 275 275 276 278 280 281 282 282 282 283 284 283 282 281 282 283 285 286 287 287 285 283 281 278 276 275
282 282 283 284 285 285 287 288 289 289 289 291 291 292 291 290 288 285 283 282 280 278 275 275 276 278 280 281 283 284 284 284 284 285 285 286 287 288 287 287 287 286 285 284 283 281 280 278 276 272 266 259 257 258 262 266 270 272 273 273 273 274 276 279 282 284 285 286 287 288 288 287 286 285 284 283 284 286 287 288 287 286 284 282 280 277
281 281 281 281 281 282 284 285 286 286 287 288 289 289 289 289 287 285 283 280 278 275 273 273 273 274 277 279 281 282 282 282 281 282 283 284 285 286 286 287 287 287 287 288 288 288 288 287 285 283 280 271 263 258 258 262 267 271 273 273 274 276 278 281 284 286 288 289 291 291 291 290 288 287 284 283 284 286 288 288 288 288 287 286 284 281
Height
810 810 811 812 812 812 812 813 813 814 814 813 813 813 813 813 813 812 812 811 811 810 810 809 809 809 808 808 808 807 807 806 805 805 804 803 803 802 802 801 801 801 800 800 800 800 799 798 798 798 797 797 797 797 797 797 797 797 797 797 797 796 796 796 795 795 795 795 795 794 794 794 794 794 793 793 793 792 792 792 791 791 791 791 790 790
809 810 810 811 811 811 811 812 812 812 812 812 812 812 812 812 811 811 811 810 810 809 809 808 808 807 807 807 806 806 805 805 804 803 803 802 802 801 801 800 800 800 799 799 798 798 797 796 796 796 796 796 796 796 796 795 795 795 795 795 795 795 794 794 794 794 793 793 793 793 792 792 792 792 791 791 791 790 790 790 790 790 789 789 788 788
809 809 809 810 810 810 810 810 811 811 811 811 811 811 810 810 810 810 809 809 809 808 808 807 807 806 806 805 805 805 804 803 803 802 801 801 800 800 800 799 799 798 798 797 796 796 795 795 795 795 794 794 794 794 794 794 794 794 794 793 793 793 793 792 792 792 791 791 791 791 790 790 790 790 790 789 789 789 788 788 788 787 787 787 786 786
808 808 808 808 809 809 809 809 810 810 810 810 810 809 809 809 809 808 808 808 808 807 807 806 806 805 805 804 804 803 803 802 801 801 800 800 799 799 798 798 797 797 796 795 795 794 794 794 793 793 793 793 793 793 793 793 792 792 792 792 791 791 791 790 790 790 790 790 789 789 789 788 788 788 788 787 787 787 786 786 785 785 785 785 784 784
806 806 807 807 807 808 808 808 809 809 809 809 808 808 808 808 808 807 807 807 807 806 806 805 805 805 804 803 802 802 801 801 800 800 799 798 798 797 797 796 796 795 795 794 794 793 793 792 792 792 792 792 791 791 791 791 791 790 790 790 790 789 789 789 789 788 788 788 787 787 787 786 786 786 785 785 785 785 784 784 784 783 783 782 782 782
805 805 806 806 807 807 807 807 808 808 808 807 807 807 807 807 806 806 806 806 806 805 805 805 804 804 803 802 801 801 800 800 799 798 798 797 797 796 795 795 795 794 793 793 792 792 791 791 791 791 790 790 790 790 790 789 789 789 788 788 788 787 787 787 787 786 786 786 785 785 785 785 784 784 784 783 783 783 782 782 781 781 780 780 780 780
804 805 805 805 806 806 806 806 806 806 806 806 806 806 806 806 806 806 805 805 805 805 805 804 803 803 802 801 801 800 799 799 798 797 797 796 795 795 795 794 793 793 792 792 791 791 790 790 790 789 789 789 788 788 788 787 787 787 786 786 786 785 785 785 785 785 784 784 784 783 783 783 782 782 782 781 781 780 780 780 779 779 778 778 778 777
803 804 805 805 805 805 805 805 805 805 805 805 805 805 805 805 805 805 805 805 805 804 804 803 803 802 801 801 800 799 799 798 797 796 796 795 795 794 793 793 792 791 791 790 790 789 789 788 788 788 787 787 787 786 786 785 785 785 785 784 784 784 783 783 783 782 782 782 781 781 781 780 780 780 780 779 779 778 778 777 777 776 776 775 775 775
803 804 804 805 805 805 805 804 804 805 805 805 805 805 805 805 805 805 804 804 804 804 803 803 802 801 800 800 799 799 798 797 796 795 795 794 793 792 792 791 791 790 790 789 789 788 788 787 787 786 786 785 785 785 784 784 784 783 783 782 782 782 781 781 781 780 780 780 780 779 779 778 778 778 777 777 776 776 775 775 775 774 774 773 773 773
803 803 803 804 804 804 804 803 803 804 804 804 804 804 805 804 804 804 804 803 803 803 803 802 801 800 800 799 798 797 797 796 795 794 793 793 792 791 791 790 790 789 788 788 787 787 786 786 785 785 785 784 783 783 783 782 782 781 781 781 780 780 780 779 779 779 778 778 778 777 777 776 776 775 775 775 774 774 773 773 772 772 771 771 771 771
802 802 803 803 803 803 803 803 803 803 803 803 804 804 804 804 804 803 803 802 802 802 802 801 801 800 799 798 797 796 795 795 794 793 792 792 791 790 790 789 789 788 787 787 786 786 785 785 784 783 783 782 782 781 781 780 780 780 779 779 779 778 778 778 777 777 776 776 776 775 775 774 774 773 773 772 772 771 771 770 770 770 769 769 769 768
801 801 801 802 802 802 802 802 802 802 803 803 803 803 803 803 803 803 803 802 802 801 801 800 800 800 799 797 796 795 794 793 792 792 791 790 790 790 789 788 788 787 786 786 785 785 784 783 782 782 781 780 780 780 779 779 778 778 777 777 777 776 776 776 775 775 775 774 774 773 773 772 772 771 771 770 770 769 769 768 768 767 767 767 766 766
800 800 801 801 801 801 801 801 802 802 802 802 802 802 802 802 802 802 802 802 801 801 800 800 799 798 798 797 795 794 793 792 792 791 790 790 790 789 788 788 787 786 785 785 784 783 782 781 781 780 780 779 778 778 777 777 776 776 776 775 775 775 775 774 774 773 773 772 772 771 771 770 770 769 769 768 768 767 766 766 765 765 765 764 764 764
800 800 800 800 800 800 801 801 801 801 801 801 801 802 802 802 802 802 802 801 801 800 800 799 798 797 796 795 795 794 793 792 791 790 790 790 789 789 788 787 786 785 784 783 782 781 781 780 779 778 778 777 776 776 776 775 775 775 775 774 774 773 773 772 772 771 771 770 770 769 769 768 768 767 766 766 765 765 764 764 763 763 762 762 761 761
799 799 800 800 800 800 800 800 800 800 800 801 801 801 801 801 801 801 801 800 800 800 799 798 797 796 795 794 793 793 792 792 791 790 789 789 788 788 787 786 785 785 783 782 781 780 780 779 778 777 776 775 775 775 774 774 774 773 773 772 772 771 771 770 770 770 769 768 768 767 767 766 765 765 764 764 763 763 762 761 761 760 760 760 759 759
799 799 799 799 799 800 800 800 800 800 800 800 801 801 801 801 801 801 800 800 800 799 799 798 796 795 794 793 793 793 792 791 791 790 789 788 788 787 786 785 784 783 782 781 780 779 778 777 776 775 775 774 773 773 773 772 772 771 771 770 770 770 769 769 768 767 767 766 766 765 765 764 763 763 762 761 761 760 760 759 759 758 757 757 756 756
799 799 799 799 799 799 799 799 800 800 800 800 800 801 800 800 800 800 800 800 800 799 798 798 796 795 793 792 792 792 792 791 791 790 789 787 786 786 785 785 783 782 780 779 778 777 776 775 775 774 773 772 772 771 771 771 770 770 769 769 768 768 767 767 766 765 765 764 764 763 762 762 761 760 760 759 759 758 757 757 756 755 755 755 754 754
798 799 799 799 799 799 799 799 799 800 800 800 800 800 800 800 800 800 800 800 799 799 798 797 796 795 794 792 792 792 792 791 790 790 788 787 785 784 784 784 782 781 779 778 777 776 775 774 773 772 771 771 770 770 770 769 768 768 767 767 766 766 765 765 764 763 763 762 761 761 760 760 759 758 757 757 756 755 755 754 754 753 752 752 751 751
798 798 798 798 798 798 799 799 799 799 800 800 800 800 800 799 800 800 799 799 799 798 797 797 796 795 794 792 791 791 791 791 790 789 788 785 784 783 783 782 781 779 778 776 775 775 774 773 772 771 770 770 769 769 768 767 767 766 765 765 765 764 763 763 762 761 760 760 759 759 758 757 756 756 755 754 754 753 752 752 751 750 750 750 749 749
797 797 797 798 798 798 798 798 799 799 799 799 799 799 799 799 799 799 798 798 797 797 796 795 795 793 793 791 791 791 791 790 790 789 787 785 782 781 781 781 780 778 776 775 774 773 772 771 770 770 769 768 768 767 766 766 765 765 764 763 762 762 761 760 760 759 758 758 757 756 755 755 754 754 753 752 751 751 750 750 749 748 747 747 746 746
797 797 797 797 797 797 797 798 798 798 798 798 798 798 798 798 798 798 797 797 796 795 795 794 793 792 792 791 790 790 790 790 789 788 786 783 781 780 780 780 779 777 775 773 773 772 771 770 769 768 767 767 766 765 765 764 763 763 762 761 760 760 759 758 757 757 756 755 755 754 753 752 752 751 750 750 749 748 747 747 746 745 745 744 744 743
796 796 796 797 797 797 797 797 797 797 798 798 798 798 798 797 797 796 796 795 795 794 794 793 792 791 791 790 790 789 789 789 788 787 785 782 780 778 778 778 777 776 774 772 771 771 770 769 768 767 766 765 765 764 763 762 761 760 760 759 758 757 757 756 755 754 754 753 752 751 751 750 749 749 748 747 746 746 745 744 744 743 742 742 741 740
796 796 796 796 796 796 796 796 796 796 797 797 797 797 797 796 796 796 795 795 794 793 792 792 791 790 790 789 788 788 787 787 787 786 785 782 779 777 777 777 776 775 773 771 770 770 769 768 767 765 765 764 763 762 761 760 760 759 758 757 756 755 754 754 753 752 751 750 750 749 748 748 747 746 745 745 744 743 742 742 741 740 740 739 739 738
795 795 795 795 795 795 795 795 795 795 796 796 796 796 796 796 795 795 794 793 793 792 792 791 790 789 788 788 787 786 786 786 785 785 784 781 778 776 776 776 775 774 772 771 770 769 768 766 765 764 763 762 761 760 760 759 758 757 756 755 754 753 752 751 750 750 749 748 747 747 746 745 745 744 743 742 741 740 740 739 739 738 737 736 736 735
795 795 795 795 794 794 794 794 795 795 795 795 795 795 795 795 794 794 793 793 792 792 791 790 789 788 787 786 785 785 784 784 784 784 782 780 777 775 775 775 775 773 771 770 769 768 767 765 764 763 762 761 760 759 758 757 755 755 754 753 752 751 750 749 749 748 747 746 745 745 744 743 742 741 740 740 739 738 737 737 736 735 735 734 733 733
794 793 793 793 793 793 793 793 793 794 794 794 793 793 793 793 793 792 792 792 791 791 790 790 788 786 785 785 784 784 783 783 783 782 781 779 777 775 774 774 774 772 770 769 768 767 766 764 762 761 760 759 758 757 756 755 754 753 752 751 750 749 748 747 746 746 745 744 743 742 741 740 740 739 738 737 737 736 735 734 734 733 732 731 731 730
792 792 792 792 792 792 792 792 792 792 792 792 792 792 792 792 792 791 791 790 790 790 790 788 787 785 785 784 783 782 782 782 781 781 780 779 777 775 773 773 773 772 770 768 767 766 765 763 761 760 759 757 756 755 754 753 752 751 750 749 748 747 746 745 745 744 742 741 740 740 739 738 737 736 736 735 734 734 733 732 731 731 730 729 728 727
791 791 790 790 790 790 790 790 790 790 790 790 790 791 791 791 791 790 789 789 789 789 788 787 786 785 784 783 782 781 781 781 780 780 779 778 776 774 773 772 772 771 769 767 765 765 764 762 760 759 757 756 755 754 753 752 751 750 749 747 746 745 744 743 742 741 740 739 738 738 737 736 735 734 734 733 732 731 730 730 729 729 728 727 726 724
790 790 790 789 789 789 789 789 788 788 788 789 789 789 790 790 789 789 788 788 788 788 787 786 785 784 783 782 781 781 780 780 779 778 778 777 775 773 772 772 771 770 769 767 765 763 761 760 759 758 756 755 754 753 751 750 749 748 747 745 744 743 742 741 740 739 738 737 736 735 735 734 733 732 731 730 730 729 728 728 727 727 726 724 724 722
790 789 789 788 788 788 787 787 787 787 787 787 787 788 788 788 787 787 787 787 787 786 786 785 784 784 783 782 781 780 779 778 777 777 777 776 774 773 772 771 770 770 769 768 765 762 759 758 757 757 755 754 753 752 750 749 748 746 745 743 742 741 740 739 739 738 736 735 735 734 733 732 731 730 729 729 728 727 726 726 725 724 724 722 721 720
789 788 788 787 787 787 786 786 786 786 786 786 786 786 786 786 786 786 786 786 786 785 785 784 783 783 782 782 781 779 777 776 777 777 777 775 774 772 771 771 770 769 769 769 767 763 759 755 754 755 755 753 752 750 749 748 747 745 744 742 740 739 738 738 737 736 735 734 733 732 731 730 729 728 727 726 725 725 724 724 723 723 721 720 719 718
787 787 786 786 786 786 786 785 785 785 785 785 785 785 785 785 785 785 785 784 784 784 783 783 782 782 781 781 780 778 776 776 776 776 776 775 774 772 771 770 770 768 768 768 768 765 761 756 753 752 753 752 750 749 748 747 745 744 743 741 739 738 736 736 735 734 733 732 731 729 729 728 727 726 725 724 723 723 722 721 721 720 719 718 717 716
786 786 785 785 785 785 785 785 784 784 784 784 784 784 783 783 783 783 783 783 783 783 782 782 781 781 780 780 779 777 775 775 775 775 775 775 773 771 770 770 769 768 767 767 766 765 763 759 755 752 751 750 749 748 746 745 744 743 742 740 738 736 735 735 734 732 731 730 729 728 727 726 725 724 723 722 721 720 720 719 719 718 718 716 715 714
785 785 785 785 784 784 784 784 783 783 783 783 783 783 782 782 782 782 782 782 781 781 781 781 780 780 779 778 777 775 775 774 774 775 775 774 773 771 770 769 768 767 766 765 764 763 761 759 756 754 750 748 747 746 745 744 742 741 740 739 737 735 734 733 732 731 729 728 727 725 724 724 723 722 721 720 719 718 718 717 717 716 715 715 714 712
785 784 784 784 784 783 783 783 782 782 782 782 782 782 782 781 781 781 781 780 780 780 780 779 779 779 778 777 776 774 773 773 773 773 774 773 772 770 769 768 767 767 766 764 763 762 760 758 756 754 751 748 745 744 743 742 741 740 739 738 736 735 733 732 731 729 728 727 725 724 723 722 721 719 719 718 717 716 716 715 714 714 713 713 712 711
784 784 783 783 783 782 782 782 782 782 781 781 781 781 781 780 780 780 780 779 779 779 778 778 777 777 776 776 775 773 772 771 771 772 772 772 771 770 769 767 766 766 765 764 762 761 759 757 755 753 752 749 745 742 740 740 740 739 737 736 735 733 732 731 730 729 727 725 723 722 721 720 719 718 717 716 715 714 714 713 712 711 711 710 709 709
783 783 783 782 782 782 781 781 781 781 781 780 780 780 780 780 779 779 778 778 778 777 777 776 776 775 775 774 773 772 770 770 770 770 770 770 770 769 768 766 765 765 764 763 761 760 759 756 754 752 750 748 745 742 739 738 737 737 735 734 733 732 730 729 728 727 725 724 722 720 719 718 717 716 715 714 713 712 711 710 710 709 708 708 707 706
783 782 782 782 781 781 781 780 780 780 780 780 780 779 779 779 778 778 777 777 776 776 775 775 774 773 773 772 771 770 769 769 768 768 768 768 768 767 766 765 763 763 763 762 760 759 758 756 753 751 748 746 744 742 740 738 736 735 733 732 731 730 728 727 726 725 724 722 720 719 718 717 715 714 713 712 711 710 709 708 707 706 706 705 704 704
782 781 781 781 781 780 780 780 780 779 779 779 779 778 778 777 777 776 776 775 775 774 774 773 772 771 770 770 769 768 768 767 766 765 765 765 765 765 765 763 762 761 760 760 759 758 757 755 753 750 748 745 742 740 739 738 736 734 732 730 728 727 726 725 724 724 722 721 719 717 716 714 714 712 711 710 709 708 706 705 704 704 703 703 701 700
781 781 780 780 780 780 780 779 779 779 778 778 777 777 776 776 775 775 774 774 773 773 772 772 771 770 769 768 768 767 766 765 765 764 763 763 763 763 762 761 760 759 758 758 757 756 755 753 751 749 747 745 742 740 737 736 735 733 732 729 727 724 723 723 723 721 720 719 717 716 714 713 711 710 709 708 707 706 705 704 702 702 701 701 700 698
780 780 780 780 779 779 779 779 778 778 777 777 776 776 775 775 775 774 773 773 772 772 771 770 770 769 768 767 766 765 765 764 763 762 761 761 760 760 760 759 758 757 756 755 755 753 752 751 749 747 745 744 741 739 736 734 733 732 731 729 726 723 722 721 720 719 718 717 715 714 713 711 710 709 707 706 705 704 703 702 701 700 699 699 698 697
780 780 779 779 779 778 778 778 777 777 776 776 775 775 775 774 774 773 772 772 771 770 770 769 768 767 766 765 764 763 763 762 761 760 760 759 759 758 757 757 756 755 755 753 752 751 750 749 747 745 744 742 740 738 735 732 731 730 730 728 725 723 720 719 718 718 717 715 714 713 711 710 708 707 705 704 703 701 701 700 699 698 697 696 695 694
779 779 779 778 778 778 777 777 776 776 775 775 775 774 774 773 773 772 771 771 770 769 769 768 767 766 765 763 762 761 760 760 759 759 758 757 757 756 755 755 754 753 752 751 750 748 747 746 745 743 741 740 739 737 734 731 729 728 727 726 725 723 720 716 715 715 715 714 712 711 709 708 706 704 703 701 700 699 698 697 696 695 694 694 692 691
778 778 778 777 777 777 776 776 775 775 775 774 773 773 772 772 772 771 770 770 769 768 767 767 766 765 763 762 760 759 759 758 757 757 756 756 755 754 754 753 752 751 750 750 748 746 745 743 742 740 740 739 737 735 732 729 727 726 724 724 724 722 720 716 714 713 712 711 710 709 707 706 704 702 700 699 698 697 696 695 694 693 692 691 690 689
777 777 777 777 776 776 775 775 775 774 774 773 772 772 771 771 770 770 769 768 768 767 766 766 765 764 762 760 759 758 757 756 755 755 755 754 753 753 752 751 750 749 748 747 746 745 743 741 740 738 737 737 735 733 730 728 726 724 722 721 721 720 717 715 714 712 711 709 707 706 705 704 702 701 699 697 695 694 693 692 691 690 689 688 687 686
777 776 776 776 775 775 775 774 774 773 773 772 771 771 770 770 769 769 768 767 767 766 765 765 764 763 761 759 758 757 756 755 754 753 753 752 751 751 750 749 749 748 747 745 744 743 741 740 738 736 735 734 732 730 728 727 725 722 720 719 718 717 715 713 712 710 709 707 705 704 702 702 701 699 697 694 693 691 690 689 688 687 686 685 684 683
776 776 775 775 775 774 774 773 773 772 772 771 770 770 769 769 768 768 767 766 766 765 764 763 763 762 760 759 757 756 755 754 752 751 751 750 750 749 748 747 747 746 745 743 742 740 739 738 736 735 734 732 729 727 725 724 723 721 719 717 716 715 713 710 709 708 707 705 703 702 700 699 699 697 694 692 690 689 687 686 686 685 684 683 681 680
775 775 775 775 774 774 773 772 772 771 771 770 769 769 768 768 767 767 766 765 765 764 763 762 761 760 759 758 756 755 755 753 751 750 749 749 748 747 746 745 745 744 742 741 740 738 737 735 734 733 732 731 728 725 722 721 720 719 717 716 714 713 710 708 706 705 704 703 701 700 699 698 697 695 693 690 688 686 684 684 683 682 681 680 679 678
775 775 774 774 773 773 772 771 771 770 770 769 768 768 767 767 766 766 765 764 763 763 762 761 760 759 757 756 755 754 753 752 750 749 748 747 746 745 745 744 743 741 740 739 737 736 734 733 731 730 729 728 726 723 720 718 717 716 715 714 712 710 708 706 704 703 702 701 699 698 697 696 695 693 691 689 686 684 682 680 680 679 679 678 677 675
774 774 773 773 772 772 771 771 770 770 769 768 768 767 766 765 765 765 764 763 762 761 760 760 759 757 756 755 754 753 752 750 749 748 746 746 745 744 743 742 741 740 738 736 735 734 732 729 728 726 725 725 724 722 719 716 715 714 713 711 710 708 706 704 702 701 700 699 698 696 695 694 693 692 690 688 685 682 679 678 676 676 675 675 674 673
773 773 772 772 771 771 770 770 769 769 768 767 766 766 765 764 764 763 762 761 761 760 759 758 757 756 755 753 752 751 750 749 748 746 745 744 743 743 741 740 740 739 737 735 733 731 729 727 724 722 721 721 721 720 718 715 713 712 710 708 707 706 704 702 700 699 698 697 696 695 694 692 691 690 688 686 684 681 678 675 673 673 673 672 672 670